Location: Sungai Liu
(2.3667°N, 113.8667°E)
Time: 13:29:48
(UTC+00:00)

Cosmos 2181 Rocket - Pass Details

Date: 20 May 2022
Orbit: 952 x 1014 km, 82.9° (Epoch: 06 July)

Event Time Altitude Azimuth Distance (km) Brightness Sun altitude
Exits shadow 20:07:22 59° 334° (NNW) 1,142 4.2 -30.2°
Drops below altitude 10° 20:12:27 10° 358° (N) 2,735 6.6 -29.0°
Sets 20:14:57 0° 360° (N) 3,672 7.3 -28.5°
